Meridian, MS

2:37 PM CDT on October 20, 2017 (GMT -0500)
Key

Weather History for KMEI - July, 2013

Change the Weather History Date:

Thursday, July 25, 2013

  Actual Average Record
Temperature  
Mean Temperature 79 °F 81 °F  
Max Temperature 89 °F 92 °F 100 °F (1981)
Min Temperature 68 °F 70 °F 58 °F (1904)
Degree Days  
Heating Degree Days 0 0  
Month to date heating degree days 0 0  
Since 1 June heating degree days 0 0  
Since 1 July heating degree days 0 0  
Cooling Degree Days 14 16  
Month to date cooling degree days 351 391  
Year to date cooling degree days 1031 1054  
Since 1 June cooling degree days 771 771  
Growing Degree Days 28 (Base 50)    
Moisture  
Dew Point 70 °F    
Average Humidity 77    
Maximum Humidity 100    
Minimum Humidity 53    
Precipitation  
Precipitation 0.00 in 0.16 in 3.37 in (1985)
Month to date precipitation 4.43 4.18  
Year to date precipitation 45.65 34.01  
Sea Level Pressure  
Sea Level Pressure 29.98 in    
Wind  
Wind Speed 3 mph (NNW)    
Max Wind Speed 10 mph    
Max Gust Speed 16 mph    
Visibility 10 miles    
Events      
T = Trace of Precipitation, MM = Missing Value Source: NWS Daily Summary

Daily Weather History Graph

Daily Weather History Graph

Search for Another Location

Airport or City:

Trip Planner

Search our weather history database for the weather conditions in past years. The results will help you decide how hot, cold, wet, or windy it might be!

Date:

Astronomy

Jul. 25, 2013 Rise Set
Actual Time 6:05 AM CDT 7:57 PM CDT
Civil Twilight 5:38 AM CDT 8:24 PM CDT
Nautical Twilight 5:05 AM CDT 8:57 PM CDT
Astronomical Twilight 4:30 AM CDT 9:32 PM CDT
Moon 9:55 PM CDT (7/25) 9:19 AM CDT (7/25)
Length of Visible Light 14h 46m
Length of Day
13h 52m
Waning Gibbous, 88% of the Moon is Illuminated
Jul 25
Waning Gibbous
Jul 29
Last Quarter
Aug 6
New
Aug 14
First Quarter
Aug 20
Full

Hourly Weather History & Observations

Time (CDT) Temp. Heat Index Dew Point Humidity Pressure Visibility Wind Dir Wind Speed Gust Speed Precip Events Conditions
12:58 AM 73.0 °F - 71.1 °F 93% 29.91 in 10.0 mi Calm Calm - N/A   Clear
1:58 AM 71.1 °F - 70.0 °F 96% 29.90 in 10.0 mi Calm Calm - N/A   Clear
2:58 AM 70.0 °F - 69.1 °F 97% 29.90 in 10.0 mi Calm Calm - N/A   Clear
3:58 AM 70.0 °F - 69.1 °F 97% 29.91 in 10.0 mi Calm Calm - N/A   Clear
4:58 AM 70.0 °F - 68.0 °F 93% 29.92 in 10.0 mi Calm Calm - N/A   Clear
5:58 AM 69.1 °F - 68.0 °F 96% 29.95 in 8.0 mi Calm Calm - N/A   Clear
6:17 AM 69.8 °F - 68.0 °F 94% 29.96 in 9.0 mi Calm Calm - N/A   Partly Cloudy
6:46 AM 69.8 °F - 68.0 °F 94% 29.97 in 7.0 mi Calm Calm - N/A   Mostly Cloudy
6:58 AM 70.0 °F - 69.1 °F 97% 29.96 in 7.0 mi Calm Calm - N/A   Mostly Cloudy
7:58 AM 73.0 °F - 71.1 °F 93% 29.97 in 9.0 mi Calm Calm - N/A   Overcast
8:58 AM 75.9 °F - 72.0 °F 87% 29.98 in 10.0 mi North 6.9 mph - N/A   Overcast
9:36 AM 78.8 °F - 71.6 °F 78% 30.00 in 10.0 mi WNW 3.5 mph - N/A   Mostly Cloudy
9:54 AM 78.8 °F - 71.6 °F 78% 30.00 in 10.0 mi Variable 3.5 mph - N/A   Scattered Clouds
9:58 AM 80.1 °F 83.8 °F 72.0 °F 76% 30.00 in 10.0 mi Variable 3.5 mph - N/A   Partly Cloudy
10:55 AM 80.6 °F 84.6 °F 71.6 °F 74% 30.02 in 10.0 mi Variable 4.6 mph - N/A   Mostly Cloudy
10:58 AM 81.0 °F 85.2 °F 72.0 °F 74% 30.01 in 10.0 mi North 3.5 mph - N/A   Scattered Clouds
11:07 AM 82.4 °F 87.2 °F 71.6 °F 70% 30.02 in 10.0 mi North 4.6 mph - N/A   Mostly Cloudy
11:19 AM 84.2 °F 89.6 °F 71.6 °F 66% 30.02 in 10.0 mi North 6.9 mph - N/A   Scattered Clouds
11:58 AM 82.9 °F 88.0 °F 72.0 °F 69% 30.01 in 10.0 mi WNW 6.9 mph - N/A   Scattered Clouds
12:58 PM 87.1 °F 92.8 °F 71.1 °F 59% 30.01 in 10.0 mi NW 6.9 mph - N/A   Clear
1:58 PM 87.1 °F 92.8 °F 71.1 °F 59% 30.00 in 10.0 mi NNW 6.9 mph - N/A   Mostly Cloudy
2:58 PM 89.1 °F 95.0 °F 71.1 °F 55% 29.99 in 10.0 mi WNW 6.9 mph - N/A   Scattered Clouds
3:58 PM 88.0 °F 92.1 °F 69.1 °F 53% 29.99 in 10.0 mi NNW 8.1 mph - N/A   Clear
4:58 PM 87.1 °F 90.6 °F 68.0 °F 53% 30.00 in 10.0 mi NNW 8.1 mph - N/A   Clear
5:58 PM 84.0 °F 89.0 °F 71.1 °F 65% 30.00 in 10.0 mi WNW 5.8 mph - N/A   Clear
6:58 PM 82.0 °F 86.3 °F 71.1 °F 69% 30.00 in 10.0 mi NNW 5.8 mph - N/A   Clear
7:58 PM 78.1 °F - 69.1 °F 74% 30.00 in 10.0 mi NNW 3.5 mph - N/A   Clear
8:58 PM 75.9 °F - 69.1 °F 79% 30.01 in 10.0 mi North 4.6 mph - N/A   Clear
9:58 PM 73.0 °F - 70.0 °F 90% 30.02 in 10.0 mi Calm Calm - N/A   Clear
10:58 PM 72.0 °F - 69.1 °F 91% 30.03 in 10.0 mi Calm Calm - N/A   Clear
11:58 PM 71.1 °F - 68.0 °F 90% 30.04 in 10.0 mi Calm Calm - N/A   Clear